OBJECT B, 63292

Orbit data source: Space-Track

You're viewing an Uncataloged Satellite

Recently launched and/or uncataloged satellites may have evolving metadata. Metadata may include but not limited to: Owner, Maufacturer, Bus, Motor, and Mission.

OBJECT B, 63292 is a satellite in SSO that was launched on Mon, 17 Mar 2025 UTC via a GUSHENXING 1 launch vehicle from the Jiuquan Satellite Launch Center, China (JSC). Unknown objects in Earth's orbit typically refer to objects detected orbiting the Earth but have not yet been identified or cataloged. These objects could be anything from previously untracked satellites, spent rocket stages, debris from satellite collisions, or even natural meteoroids temporarily captured by Earth's gravity.

Loading next visibility...
Identifier
63292, 2025-055B
Orbit
SSO
Last TLE update
5 hours ago
Origin
Unknown
Manufacturer
Changguang WJ
Mission
Operational Commercial Meteo Radio Occ.
Bus & Motor
YY-1, Unknown motor
Mass
~50 kg wet, ~50 kg dry
Launch date (UTC)
2025-03-17 (2 months ago)
Launch vehicle
GUSHENXING 1
Launch site
Jiuquan Satellite Launch Center, China (JSC)
Object type
Unknown
Shape & HBR
Box + 1 Pan, 5 m
Radar Cross Section
5.339 m², Medium (>0.1 m² and < 1m²)

Expand to show TLE details & history

TLE from 5 hours ago
0 OBJECT B
1 63292U 25055B   25140.43841036  .00007694  00000-0  45971-3 0  9995
2 63292  97.6073 275.4118 0014607  78.3363 281.9505 15.11281991  9649
Epoch: 2025-05-20T10:31Z
TLE epoch observation values (Epoch: 2025-05-20T10:31:18.655Z)
Latitude
-0.00002°
Longitude
-120.7526°
Altitude
533.285 km
Speed
7.597 km/s
True Right ascension
18h 21m 38s
True Declination
0° 00' 00"
Sunlit
Object was in full shadow at epoch
Visualization orbit readout
Latitude
65.26482°
Longitude
76.22287°
Altitude
535.401 km
Speed
7.606 km/s
Apparent Right ascension
10h 52m 07s
Apparent Declination
19° 26' 03"
Sunlit
Object is in daylight
Visualization observer readout
Local Sidereal Time
00:41:05
Azimuth
28.557° NE
Elevation
-25.439°
Doppler factor
1
Orbital elements
Apogee altitude
539.365 km
Perigee altitude
519.186 km
Semi-major axis
6,907.412 km
Eccentricity
0.00146
Inclination
97.6073°
RAAN
275.4118°
Arg. of periapsis
78.3363°
True anomaly
Unknown
Mean anomaly
281.9505°
Eccentric anomaly
Unknown
Mean motion
3.78068 °/min
Orbital period
95.22 mins
BSTAR
0.00045971
Loading maneuver chart data...
Loading SW <> Apogee altitude chart data...
Loading historical data...
Loading historical data...
Loading historical data...
Loading historical data...
Loading historical data...
Loading historical data...
Loading historical data...

OBJECT B Visibility forecast

Observer location: undefined°, undefined°

Span
Click to sort rows by Start time (UTC) header in descending order
Start Az.
Max El. time (UTC)
Max El. Az.
Max El.
End time (UTC)
End Az.
5 mins2025-05-20 22:13:21.143Z348.378° N2025-05-20 22:15:21.143Z284.363° WNW36.273°2025-05-20 22:18:21.143Z215.049° SW
6 mins2025-05-21 08:54:21.143Z158.641° S2025-05-21 08:56:21.143Z132.264° SE41.803°2025-05-21 09:00:21.143Z351.845° N
|